SL-6 R/B(2)

基本信息
目录编号:
26045
目录名称:
SL-6 R/B(2)
国际标识:
1999-073D
轨道中心:
EARTH
物体状态:
在轨
发射日期:
1999-12-27 UTC
国别:
俄罗斯(独联体) (CIS)
轨道信息
数据来源: 国际轨道数据
星历时间: 2026-07-10T04:01:21+0800
半长轴: 25492.739km
偏心率: 0.7438537
轨道倾角: 62.296°
近地点辐角: 206.694°
升交点赤经: 116.218°
平近点角: 78.492°
近地点: 151.733km
远地点: 38077.471km
周期: 675.125分钟
每日圈数: 2.132937
详细信息
发射场:
PKMTR
轨道高度:
LEO
数据来源:
AOE Integration Group
参考系:
TEME
时间系统:
UTC
历元类型:
SGP4
2D轨道图
3D轨道图
轨道高度分析图
轨道倾角分析图
轨道综合分析图
查看轨道综合分析图